Regional Weather Roundup
Issued by NWS

Home | Current Version | Previous Version | Graphics & Text | Print | Product List | Glossary On
Versions: 1 2 3 4 5 6 7 8 9 10 11 12 13 14 15 16 17 18 19 20 21 22 23 24 25 26 27 28 29 30 31 32 33 34 35 36 37 38 39 40 41 42 43 44 45 46 47 48 49 50
000
ASUS43 KFSD 300610
RWRSD

WEATHER ROUNDUP FOR SOUTH DAKOTA
NATIONAL WEATHER SERVICE SIOUX FALLS SD
100 AM CDT MON MAY 30 2016

NOTE: "FAIR" INDICATES FEW OR NO CLOUDS BELOW 12,000 FEET WITH NO
SIGNIFICANT WEATHER AND/OR OBSTRUCTIONS TO VISIBILITY.


SDZ001>005-009-010-012>017-300700-
NORTHWEST AND NORTH CENTRAL SOUTH DAKOTA

CITY           SKY/WX    TMP DP  RH WIND       PRES   REMARKS
BUFFALO          N/A     57  47  69 SE5       29.91F
FAITH            N/A     58  46  64 SE14      29.97F
MOBRIDGE       CLEAR     58  54  86 E6        29.94F
$$

SDZ012>016-024>037-041>051-057-063-072>074-300700-
SOUTHWEST AND SOUTH CENTRAL SOUTH DAKOTA

CITY           SKY/WX    TMP DP  RH WIND       PRES   REMARKS
RAPID CTY ARPT CLEAR     55  52  89 N8        29.97F
PIERRE         CLOUDY    58  54  86 E8        29.95F
CUSTER         CLOUDY    49  40  71 N3        30.07F
ELLSWORTH AFB  CLEAR     58  53  82 CALM      29.97F
PHILIP         CLEAR     61  56  83 E10       29.93F
PINE RIDGE     CLOUDY    54  51  90 CALM      29.96S
WINNER         FAIR      65  56  72 SE13      29.97F
$$

SDZ004>011-016>023-039-040-300700-
NORTHEAST SOUTH DAKOTA

CITY           SKY/WX    TMP DP  RH WIND       PRES   REMARKS
ABERDEEN       PTCLDY    58  50  75 CALM      29.98S
WATERTOWN      CLOUDY    62  51  67 S3        30.00F
BROOKINGS      CLEAR     61  53  75 SE5       30.01F
SISSETON         N/A     58  48  69 CALM      29.97S
$$

SDZ017-020-022-023-036>040-048>070-300700-
SOUTHEAST SOUTH DAKOTA

CITY           SKY/WX    TMP DP  RH WIND       PRES   REMARKS
SIOUX FALLS    CLOUDY    55  51  86 NE5       30.00F
HURON          CLEAR     63  51  65 SE7       29.97F
CHAMBERLAIN    CLOUDY    66  58  75 E10       29.96F
MITCHELL       CLOUDY    65  56  72 SE6       29.98F
YANKTON        CLOUDY    64  54  68 E6        29.97F
$$

ABBREVIATIONS USED IN REMARKS
   TC - TEMPERATURE IN CELSIUS
  WCI - WIND CHILL INDEX
   HX - HEAT INDEX
  VSB - VISIBILITY





USA.gov is the U.S. government's official web portal to all federal, state and local government web resources and services.